Simultaneous Nadir Overpasses (SNOs) Predictions

Prediction of SNOs between GOES-15 and METOP-C Satellite Orbit:

Table of predicted SNOs for the next 14.0 days since TLE Epoch: 7/19/2022
Index Date Time (GOES-15) GOES-15 Lat,Lon METOP-C Lat,Lon Distance(km) Time Diff (sec)
1 07/19/2022 06:09:51 0.11,-128.30 -0.13,-129.42 126.97 80
2 07/20/2022 05:46:31 0.15,-128.29 1.00,-124.43 439.47 80
3 07/21/2022 18:08:03 -0.10,-128.31 0.07,-128.98 77.65 80
4 07/22/2022 17:44:44 -0.13,-128.29 -1.11,-124.00 488.80 80
5 07/24/2022 06:06:22 0.09,-128.21 -0.02,-128.58 41.96 80
6 07/26/2022 18:01:54 -0.08,-128.20 -0.10,-128.15 5.40 80
7 07/29/2022 06:00:13 0.07,-128.09 0.17,-127.75 39.77 80
8 07/30/2022 18:21:45 -0.03,-128.09 0.89,-132.30 479.85 80
9 07/31/2022 17:58:25 -0.06,-128.06 -0.24,-127.31 85.56 80
